Weather History for Randolph AFB, TX

Change the Weather History Date:

Saturday, May 25, 2013

  Actual Average Record
Temperature  
Mean Temperature 74 °F -  
Max Temperature 79 °F 87 °F 99 °F (2011)
Min Temperature 68 °F 67 °F 65 °F (2007)
Cooling Degree Days 8    
Growing Degree Days 24 (Base 50)    
Moisture  
Dew Point 71 °F    
Average Humidity 98    
Maximum Humidity 100    
Minimum Humidity 76    
Precipitation  
Precipitation 1.05 in - - ()
Sea Level Pressure  
Sea Level Pressure 30.09 in    
Wind  
Wind Speed 8 mph (ESE)    
Max Wind Speed 20 mph    
Max Gust Speed 26 mph    
Visibility 8 miles    
Events Rain , Thunderstorm    
Averages and records for this station are not official NWS values.
T = Trace of Precipitation, MM = Missing Value Source: NWS Daily Summary

Daily Weather History Graph

Daily Weather History Graph

Search for Another Location

Airport:

Trip Planner

Search our weather history database for the weather conditions in past years. The results will help you decide how hot, cold, wet, or windy it might be!

Date:

Astronomy

May. 25, 2013 Rise Set
Actual Time 6:35 AM CDT 8:24 PM CDT
Civil Twilight 6:09 AM CDT 8:51 PM CDT
Nautical Twilight 5:36 AM CDT 9:23 PM CDT
Astronomical Twilight 5:03 AM CDT 9:57 PM CDT
Moon 9:15 PM CDT (5/25) 7:02 AM CDT (5/25)
Length of Visible Light 14h 42m
Length of Day
13h 49m
Full, 100% of the Moon is Illuminated
May 25
Full
May 31
Last Quarter
Jun 8
New
Jun 16
First Quarter
Jun 23
Full

Hourly Weather History & Observations

Time (CDT) Temp. Dew Point Humidity Pressure Visibility Wind Dir Wind Speed Gust Speed Precip Events Conditions
12:25 AM 71.6 °F 71.6 °F 100% 30.11 in 10.0 mi ENE 5.8 mph - N/A   Scattered Clouds
12:34 AM 71.6 °F 71.6 °F 100% 30.11 in 10.0 mi ENE 4.6 mph - N/A   Mostly Cloudy
12:43 AM 71.6 °F 71.6 °F 100% 30.12 in 10.0 mi ENE 5.8 mph - N/A   Scattered Clouds
12:50 AM 71.6 °F 71.6 °F 100% 30.12 in 10.0 mi East 5.8 mph - N/A Rain Light Rain
12:58 AM 70.9 °F 70.9 °F 100% 30.09 in 10.0 mi ENE 6.9 mph - 0.00 in   Light Drizzle
1:07 AM 71.6 °F 71.6 °F 100% 30.12 in 10.0 mi ENE 6.9 mph - N/A   Partly Cloudy
1:34 AM 71.6 °F 71.6 °F 100% 30.12 in 10.0 mi ENE 5.8 mph - N/A   Mostly Cloudy
1:43 AM 71.6 °F 71.6 °F 100% 30.12 in 10.0 mi ENE 4.6 mph - N/A   Mostly Cloudy
1:58 AM 70.7 °F 70.7 °F 100% 30.09 in 10.0 mi ENE 5.8 mph - 0.00 in   Scattered Clouds
2:22 AM 71.6 °F 71.6 °F 100% 30.10 in 10.0 mi East 6.9 mph - N/A   Light Drizzle
2:49 AM 71.6 °F 71.6 °F 100% 30.08 in 5.0 mi East 6.9 mph - N/A Rain Light Rain
2:58 AM 70.9 °F 70.9 °F 100% 30.06 in 5.0 mi East 8.1 mph - 0.02 in Rain , Thunderstorm Light Rain
3:07 AM 71.6 °F 71.6 °F 100% 30.07 in 9.0 mi East 8.1 mph - N/A   Light Drizzle
3:10 AM 71.6 °F 71.6 °F 100% 30.07 in 9.0 mi East 6.9 mph - N/A   Light Drizzle
3:15 AM 71.6 °F 71.6 °F 100% 30.07 in 9.0 mi East 8.1 mph - N/A   Mostly Cloudy
3:24 AM 71.6 °F 71.6 °F 100% 30.06 in 10.0 mi East 8.1 mph - N/A   Mostly Cloudy
3:33 AM 71.6 °F 71.6 °F 100% 30.05 in 10.0 mi East 8.1 mph - N/A   Overcast
3:42 AM 71.6 °F 71.6 °F 100% 30.05 in 10.0 mi East 8.1 mph - N/A   Mostly Cloudy
3:51 AM 71.6 °F 71.6 °F 100% 30.05 in 10.0 mi East 6.9 mph - N/A   Mostly Cloudy
3:58 AM 71.6 °F 71.6 °F 100% 30.04 in 10.0 mi ESE 8.1 mph - 0.00 in   Mostly Cloudy
4:16 AM 71.6 °F 71.6 °F 100% 30.04 in 10.0 mi ESE 17.3 mph 24.2 mph N/A   Mostly Cloudy
4:19 AM 69.8 °F 69.8 °F 100% 30.04 in 9.0 mi SE 19.6 mph 25.3 mph N/A Rain Light Rain
4:28 AM 68.0 °F 68.0 °F 100% 30.04 in 7.0 mi SE 11.5 mph 25.3 mph N/A Rain Light Rain
4:37 AM 69.8 °F 69.8 °F 100% 30.03 in 2.5 mi South 9.2 mph - N/A Rain Heavy Rain
4:44 AM 73.4 °F 73.4 °F 100% 30.04 in 2.5 mi ESE 15.0 mph 20.7 mph N/A Rain Rain
4:48 AM 73.4 °F 73.4 °F 100% 30.04 in 4.0 mi ESE 11.5 mph 20.7 mph N/A Rain , Thunderstorm Light Thunderstorms and Rain
4:53 AM 71.6 °F 71.6 °F 100% 30.03 in 6.0 mi SE 8.1 mph 20.7 mph N/A Rain , Thunderstorm Light Thunderstorms and Rain
4:58 AM 72.3 °F 72.3 °F 100% 30.01 in 5.0 mi SE 5.8 mph - 0.21 in Rain , Thunderstorm Light Thunderstorms and Rain
5:03 AM 71.6 °F 71.6 °F 100% 30.03 in 5.0 mi ESE 5.8 mph - N/A Rain Light Rain
5:07 AM 71.6 °F 71.6 °F 100% 30.03 in 7.0 mi East 9.2 mph - N/A Rain , Thunderstorm Light Thunderstorms and Rain
5:16 AM 71.6 °F 71.6 °F 100% 30.04 in 8.0 mi East 11.5 mph - N/A Rain , Thunderstorm Light Thunderstorms and Rain
5:25 AM 73.4 °F 73.4 °F 100% 30.03 in 7.0 mi East 12.7 mph - N/A Rain , Thunderstorm Light Thunderstorms and Rain
5:34 AM 73.4 °F 73.4 °F 100% 30.03 in 8.0 mi ESE 12.7 mph - N/A Rain , Thunderstorm Light Thunderstorms and Rain
5:41 AM 73.4 °F 73.4 °F 100% 30.04 in 9.0 mi SE 13.8 mph - N/A Rain , Thunderstorm Light Thunderstorms and Rain
5:50 AM 73.4 °F 73.4 °F 100% 30.04 in 10.0 mi SE 17.3 mph 21.9 mph N/A Rain , Thunderstorm Light Thunderstorms and Rain
5:58 AM 72.9 °F 72.9 °F 100% 30.03 in 10.0 mi SSE 17.3 mph 26.5 mph 0.06 in Rain , Thunderstorm Light Thunderstorms and Rain
6:04 AM 73.4 °F 73.4 °F 100% 30.04 in 10.0 mi SE 12.7 mph 26.5 mph N/A Rain , Thunderstorm Light Rain
6:19 AM 73.4 °F 73.4 °F 100% 30.05 in 10.0 mi ESE 12.7 mph - N/A Rain , Thunderstorm Light Thunderstorms and Rain
6:34 AM 73.4 °F 73.4 °F 100% 30.07 in 9.0 mi SE 13.8 mph - N/A Rain Light Rain
6:36 AM 73.4 °F 73.4 °F 100% 30.07 in 7.0 mi SE 12.7 mph - N/A Rain , Thunderstorm Light Thunderstorms and Rain
6:45 AM 73.4 °F 73.4 °F 100% 30.07 in 5.0 mi SE 12.7 mph - N/A Rain , Thunderstorm Light Thunderstorms and Rain
6:52 AM 71.6 °F 71.6 °F 100% 30.07 in 9.0 mi SE 12.7 mph - N/A Rain , Thunderstorm Light Rain
6:58 AM 71.6 °F 71.6 °F 100% 30.06 in 10.0 mi SE 10.4 mph - 0.09 in Thunderstorm Light Drizzle
6:59 AM 71.6 °F 71.6 °F 100% 30.07 in 10.0 mi SE 10.4 mph - N/A Thunderstorm Scattered Clouds
7:26 AM 71.6 °F 71.6 °F 100% 30.09 in 10.0 mi Variable 2.3 mph - N/A Rain , Thunderstorm Light Rain
7:33 AM 71.6 °F 71.6 °F 100% 30.10 in 10.0 mi Variable 1.2 mph - N/A Rain , Thunderstorm Light Thunderstorms and Rain
7:35 AM 71.6 °F 71.6 °F 100% 30.10 in 10.0 mi SSE 2.3 mph - N/A Thunderstorm Thunderstorm
7:48 AM 71.6 °F 69.8 °F 94% 30.10 in 10.0 mi WSW 2.3 mph - N/A Thunderstorm Mostly Cloudy
7:57 AM 71.6 °F 69.8 °F 94% 30.11 in 10.0 mi WSW 3.5 mph - N/A   Mostly Cloudy
7:58 AM 70.7 °F 70.0 °F 98% 30.09 in 10.0 mi WSW 2.3 mph - 0.00 in   Mostly Cloudy
8:23 AM 71.6 °F 71.6 °F 100% 30.12 in 10.0 mi NNW 1.2 mph - N/A   Light Drizzle
8:30 AM 71.6 °F 71.6 °F 100% 30.13 in 2.5 mi SE 5.8 mph - N/A Rain , Thunderstorm Heavy Thunderstorms and Rain
8:39 AM 71.6 °F 71.6 °F 100% 30.13 in 3.0 mi NNE 3.5 mph - N/A Rain , Thunderstorm Light Thunderstorms and Rain
8:45 AM 71.6 °F 71.6 °F 100% 30.12 in 7.0 mi NE 3.5 mph - N/A Rain , Thunderstorm Rain
8:54 AM 71.6 °F 71.6 °F 100% 30.13 in 9.0 mi East 3.5 mph - N/A Rain Light Rain
8:58 AM 70.7 °F 70.7 °F 100% 30.12 in 9.0 mi SSE 2.3 mph - 0.14 in Rain Light Rain
9:05 AM 69.8 °F 69.8 °F 100% 30.13 in 10.0 mi South 3.5 mph - N/A Rain , Thunderstorm Light Thunderstorms and Rain
9:14 AM 69.8 °F 69.8 °F 100% 30.12 in 4.0 mi NE 4.6 mph - N/A Rain , Thunderstorm Heavy Thunderstorms and Rain
9:23 AM 69.8 °F 69.8 °F 100% 30.14 in 5.0 mi SSW 6.9 mph - N/A Rain , Thunderstorm Thunderstorms and Rain
9:32 AM 69.8 °F 69.8 °F 100% 30.14 in 7.0 mi SSW 8.1 mph - N/A Rain , Thunderstorm Thunderstorms and Rain
9:38 AM 69.8 °F 69.8 °F 100% 30.15 in 7.0 mi South 5.8 mph - N/A Rain , Thunderstorm Rain
9:47 AM 69.8 °F 69.8 °F 100% 30.16 in 4.0 mi SW 10.4 mph - N/A Rain , Thunderstorm Heavy Rain
9:56 AM 69.8 °F 69.8 °F 100% 30.15 in 6.0 mi South 5.8 mph - N/A Rain Rain
9:58 AM 69.1 °F 69.1 °F 100% 30.14 in 6.0 mi South 5.8 mph - 0.15 in Rain Rain
10:16 AM 68.0 °F 68.0 °F 100% 30.16 in 4.0 mi South 6.9 mph - N/A Rain Heavy Rain
10:25 AM 68.0 °F 68.0 °F 100% 30.16 in 5.0 mi SSW 9.2 mph - N/A Rain Heavy Rain
10:34 AM 68.0 °F 68.0 °F 100% 30.16 in 3.0 mi SSE 5.8 mph - N/A Rain Heavy Rain
10:43 AM 68.0 °F 68.0 °F 100% 30.15 in 5.0 mi SE 4.6 mph - N/A Rain Rain
10:52 AM 68.0 °F 68.0 °F 100% 30.15 in 5.0 mi South 4.6 mph - N/A Rain Rain
10:58 AM 68.4 °F 68.4 °F 100% 30.14 in 5.0 mi South 6.9 mph - 0.26 in Rain Rain
11:07 AM 68.0 °F 68.0 °F 100% 30.15 in 6.0 mi South 5.8 mph - N/A Rain Light Rain
11:25 AM 69.8 °F 69.8 °F 100% 30.15 in 8.0 mi ESE 4.6 mph - N/A Rain Light Rain
11:34 AM 69.8 °F 69.8 °F 100% 30.15 in 7.0 mi ESE 5.8 mph - N/A Rain Light Rain
11:43 AM 69.8 °F 69.8 °F 100% 30.15 in 8.0 mi ESE 5.8 mph - N/A Rain Light Rain
11:52 AM 69.8 °F 69.8 °F 100% 30.15 in 5.0 mi SE 9.2 mph - N/A Rain Rain
11:58 AM 70.3 °F 70.3 °F 100% 30.14 in 7.0 mi SE 11.5 mph - 0.09 in Rain Light Rain
12:07 PM 69.8 °F 69.8 °F 100% 30.14 in 10.0 mi ESE 10.4 mph - N/A Rain Light Rain
12:32 PM 71.6 °F 71.6 °F 100% 30.14 in 10.0 mi ESE 11.5 mph - N/A   Clear
12:38 PM 71.6 °F 71.6 °F 100% 30.14 in 10.0 mi ESE 10.4 mph - N/A   Light Drizzle
12:51 PM 69.8 °F 69.8 °F 100% 30.13 in 10.0 mi East 9.2 mph - N/A   Clear
12:58 PM 70.7 °F 70.7 °F 100% 30.13 in 10.0 mi ESE 8.1 mph - 0.01 in   Clear
1:01 PM 71.6 °F 71.6 °F 100% 30.14 in 10.0 mi ESE 6.9 mph - N/A   Light Drizzle
1:09 PM 71.6 °F 71.6 °F 100% 30.14 in 10.0 mi ESE 8.1 mph - N/A   Clear
1:10 PM 71.6 °F 71.6 °F 100% 30.14 in 10.0 mi ESE 8.1 mph - N/A   Light Drizzle
1:25 PM 71.6 °F 71.6 °F 100% 30.13 in 10.0 mi ESE 10.4 mph - N/A   Scattered Clouds
1:40 PM 71.6 °F 71.6 °F 100% 30.13 in 9.0 mi ESE 15.0 mph - N/A Rain Rain
1:49 PM 71.6 °F 71.6 °F 100% 30.12 in 10.0 mi ESE 13.8 mph - N/A Rain Light Rain
1:58 PM 72.0 °F 72.0 °F 100% 30.11 in 10.0 mi ESE 12.7 mph - 0.02 in   Light Drizzle
2:00 PM 71.6 °F 71.6 °F 100% 30.11 in 10.0 mi ESE 10.4 mph - N/A   Partly Cloudy
2:58 PM 74.3 °F 70.3 °F 87% 30.08 in 10.0 mi ESE 12.7 mph - 0.00 in   Partly Cloudy
3:58 PM 78.4 °F 70.3 °F 76% 30.06 in 10.0 mi SE 12.7 mph - N/A   Partly Cloudy
4:58 PM 79.5 °F 72.7 °F 79% 30.04 in 10.0 mi ESE 12.7 mph - N/A   Clear
5:58 PM 78.6 °F 72.9 °F 82% 30.03 in 10.0 mi SE 13.8 mph - N/A   Partly Cloudy
6:52 PM 77.0 °F 71.6 °F 83% 30.04 in 10.0 mi SE 15.0 mph - N/A   Mostly Cloudy
6:58 PM 77.7 °F 72.0 °F 82% 30.01 in 10.0 mi ESE 11.5 mph - N/A   Scattered Clouds
7:34 PM 77.0 °F 73.4 °F 89% 30.03 in 10.0 mi SE 11.5 mph - N/A   Mostly Cloudy
7:52 PM 75.2 °F 73.4 °F 94% 30.03 in 10.0 mi SE 10.4 mph - N/A   Scattered Clouds
7:58 PM 75.4 °F 72.9 °F 92% 30.01 in 10.0 mi ESE 9.2 mph - N/A   Partly Cloudy
8:58 PM 73.8 °F 72.9 °F 97% 30.04 in 10.0 mi ESE 6.9 mph - N/A   Partly Cloudy
9:25 PM 73.4 °F 71.6 °F 94% 30.05 in 10.0 mi ESE 6.9 mph - N/A   Mostly Cloudy
9:34 PM 73.4 °F 71.6 °F 94% 30.05 in 10.0 mi ESE 8.1 mph - N/A   Scattered Clouds
9:43 PM 73.4 °F 71.6 °F 94% 30.05 in 10.0 mi ESE 6.9 mph - N/A   Mostly Cloudy
9:52 PM 73.4 °F 71.6 °F 94% 30.05 in 10.0 mi ESE 9.2 mph - N/A   Mostly Cloudy
9:58 PM 73.0 °F 71.8 °F 96% 30.04 in 10.0 mi ESE 8.1 mph - N/A   Scattered Clouds
10:58 PM 70.3 °F 70.0 °F 99% 30.08 in 10.0 mi East 4.6 mph - N/A   Clear
11:34 PM 69.8 °F 69.8 °F 100% 30.09 in 10.0 mi East 3.5 mph - N/A   Mostly Cloudy
11:58 PM 70.5 °F 70.3 °F 99% 30.08 in 10.0 mi Variable 4.6 mph - N/A   Overcast